GEFSSE_con_prob3kmehi_216.txt.gz
EHI
0 0 0 1 1 1 1 1 1 2 1 2 2 1 0 0 0 0 0 0 0 0 0 0 0 0 0 0 0 0 0 0 0 0 0 0 0 0 0 0 0 0 0
1 1 1 2 2 2 2 1 1 2 1 1 1 0 0 0 0 0 0 0 0 0 0 0 0 0 0 0 0 0 0 0 0 0 0 0 0 0 0 0 0 0 0
3 2 2 3 3 3 2 1 1 1 0 0 0 0 0 0 0 0 0 0 0 0 0 0 0 0 0 0 0 0 0 0 0 0 0 0 0 0 0 0 0 0 0
4 2 2 3 3 3 1 0 0 0 0 1 1 1 0 0 0 1 1 0 0 0 0 1 0 0 0 0 0 0 0 0 0 0 0 0 0 0 0 0 0 0 0
2 1 2 3 3 2 1 0 0 0 0 1 1 1 0 0 1 2 2 1 1 1 0 0 0 0 0 0 0 1 1 0 0 0 0 0 0 0 0 0 0 0 0
1 1 2 3 2 1 0 0 0 0 0 0 0 0 0 1 2 3 2 2 2 1 0 0 0 0 0 0 0 1 1 0 0 0 0 0 0 0 0 0 0 0 0
0 0 2 3 1 0 0 0 0 0 0 0 0 0 1 2 3 3 2 2 1 1 0 0 0 0 0 0 0 1 1 0 0 0 0 0 0 0 0 0 0 0 0
0 0 1 2 1 0 0 0 0 0 0 0 0 1 2 3 3 2 1 1 0 0 0 0 0 0 0 0 0 0 0 0 0 0 0 0 0 0 0 0 0 0 0
0 0 0 0 0 0 0 0 0 0 0 0 0 1 2 3 3 1 0 0 0 0 0 0 0 0 0 0 0 1 1 1 0 0 0 0 0 0 0 0 0 0 0
0 0 0 0 0 0 0 0 0 0 0 0 0 0 1 2 2 1 0 0 0 0 0 0 0 1 1 2 2 2 2 1 0 0 0 0 0 0 1 1 0 0 0
1 0 0 0 0 0 0 0 0 0 0 0 0 0 0 1 1 0 1 1 0 0 0 0 1 2 3 3 3 3 2 1 0 0 0 0 0 1 2 2 1 0 0
2 1 0 0 0 0 0 0 0 0 0 0 0 0 0 0 0 0 1 1 0 0 0 0 1 2 2 2 1 1 1 0 0 0 1 1 1 1 2 3 2 1 0
4 2 1 1 0 0 0 0 0 0 0 0 0 0 0 0 0 0 1 1 0 0 0 0 1 1 0 0 0 0 0 0 0 0 1 2 2 2 3 4 3 1 0
5 3 2 2 1 1 1 1 1 1 1 0 0 0 0 0 0 0 0 0 0 0 0 0 0 0 0 0 0 0 0 0 0 0 1 2 3 3 5 5 4 2 1
10 8 7 5 3 3 3 3 3 3 3 1 1 0 0 0 0 0 0 0 0 0 0 0 0 0 0 0 0 0 0 0 0 0 0 1 3 4 6 6 5 3 2
19 18 16 12 9 7 6 5 4 5 6 4 2 1 2 2 2 1 1 0 0 0 0 0 0 0 0 0 0 0 0 0 0 0 0 1 2 5 6 6 6 4 3
28 29 27 21 16 12 10 8 5 4 7 8 6 5 6 6 5 4 3 1 0 0 0 0 0 0 0 0 0 0 0 0 0 0 0 0 1 3 5 6 6 5 4
38 36 33 28 21 15 12 9 5 3 5 9 9 9 10 10 8 7 5 3 1 0 0 0 0 0 0 0 0 0 0 0 0 0 0 0 0 1 2 5 7 6 5
43 40 36 31 24 18 13 10 6 3 5 8 11 12 12 13 11 9 6 4 2 1 0 0 0 0 0 0 0 0 0 0 0 0 0 0 0 0 0 2 5 6 6
48 45 41 36 29 24 20 14 9 6 5 6 10 12 13 15 14 11 7 5 4 3 2 1 0 0 0 0 0 0 0 0 0 0 0 0 0 0 0 1 2 3 5
59 57 52 45 36 32 28 21 15 9 4 3 8 11 13 15 15 13 10 8 7 6 5 3 1 0 0 0 0 0 0 0 0 0 0 0 0 0 0 0 0 1 3
72 69 64 54 45 39 34 26 18 12 6 3 5 9 12 14 15 15 13 11 10 9 8 6 3 2 1 0 0 0 0 0 0 0 0 0 0 0 0 0 0 1 2
80 78 72 62 51 43 37 31 25 20 13 7 6 7 9 11 13 15 15 13 12 11 9 8 7 6 4 2 0 0 0 0 0 0 0 0 0 0 0 0 1 2 2
84 83 78 69 58 47 40 36 34 30 21 12 9 7 6 8 12 14 14 13 13 11 10 8 7 7 6 3 1 0 0 0 0 0 0 0 0 0 0 0 1 2 3
86 85 82 75 64 54 45 40 39 35 24 15 12 9 5 6 10 12 12 12 12 11 10 7 6 6 6 4 2 1 0 0 0 0 0 0 0 0 0 0 0 1 2
87 86 82 76 68 58 48 42 39 34 24 17 15 11 7 6 9 12 12 11 11 11 10 7 5 4 5 5 3 2 1 0 0 0 0 0 0 0 0 0 0 0 1

GEFSSE_con_prob3kmehi_222.txt.gz
EHI
0 0 0 0 0 0 0 0 0 0 0 0 0 0 0 0 1 0 0 0 0 0 0 0 0 0 0 0 0 0 0 0 0 0 0 0 0 0 0 0 0 0 0
0 0 0 0 1 1 1 1 0 1 1 0 0 0 0 0 1 0 0 0 0 0 0 0 0 0 0 0 0 0 0 0 0 0 0 0 0 0 0 0 0 0 0
0 0 0 1 2 2 2 1 1 1 1 0 0 0 0 0 0 0 0 0 0 0 0 0 0 0 0 0 0 0 0 0 0 0 0 0 0 0 0 0 0 0 0
0 0 1 2 3 3 2 1 0 1 1 0 0 0 0 0 0 0 0 0 0 0 0 0 0 0 0 0 0 0 0 0 0 0 0 0 0 0 0 0 0 0 0
0 0 1 2 3 1 1 0 0 0 0 0 0 0 0 0 0 0 0 0 0 0 0 0 0 0 0 0 0 0 0 0 0 0 0 0 0 0 0 0 0 0 0
0 0 1 2 2 1 0 0 0 0 0 0 0 0 0 0 0 0 1 0 0 0 0 0 0 0 0 0 0 0 0 0 0 0 0 0 0 0 0 0 0 0 0
1 0 1 3 3 1 0 0 0 0 0 0 0 0 0 0 0 0 0 0 0 1 1 1 0 0 0 0 0 0 0 0 0 0 0 0 0 0 0 0 0 0 0
1 0 1 3 3 2 1 0 0 0 0 0 0 0 0 0 0 0 0 0 0 1 1 1 0 0 0 1 1 1 0 0 0 0 0 0 0 0 0 0 0 0 0
1 0 0 1 1 1 1 0 0 0 0 0 0 0 0 0 0 0 0 0 0 0 0 0 0 0 1 2 3 2 1 0 0 0 0 0 0 0 0 0 0 0 0
0 0 0 0 0 0 0 0 0 0 0 0 0 1 1 0 0 0 0 0 0 0 0 0 0 0 1 2 4 4 1 0 0 0 0 0 0 0 0 0 0 0 0
0 0 0 0 0 0 0 0 0 0 0 0 0 1 1 0 0 0 0 0 0 0 0 0 0 0 0 1 3 3 1 0 0 0 0 0 0 0 0 0 0 0 0
0 0 0 0 0 0 0 0 0 0 0 0 0 1 1 0 0 0 0 0 0 0 0 0 0 0 0 0 1 2 1 0 0 0 0 0 1 1 0 0 0 0 0
0 0 0 0 0 0 0 0 0 0 0 0 0 0 0 0 0 0 0 0 0 0 0 0 0 0 0 0 0 0 0 0 0 0 0 0 1 2 1 1 0 0 0
0 0 0 0 0 0 0 0 0 0 0 0 0 0 0 0 0 0 0 0 0 0 0 0 0 0 0 0 0 0 0 0 0 0 0 0 1 2 3 2 1 0 0
0 0 0 0 0 0 0 0 0 0 0 0 0 0 0 0 0 0 0 0 0 0 0 0 0 0 0 0 0 0 0 0 0 0 0 0 1 2 3 3 2 1 1
0 0 0 0 0 0 0 0 0 0 0 0 0 0 0 0 0 0 0 0 0 0 0 0 0 0 0 0 0 0 0 0 0 0 0 0 0 1 1 2 3 3 3
1 0 0 0 0 0 0 0 0 0 0 0 0 0 0 1 1 0 0 0 0 0 0 0 0 0 0 0 0 0 0 0 0 0 0 0 0 0 0 1 3 4 4
2 1 0 0 1 1 1 0 1 1 0 0 0 0 1 2 3 2 1 1 0 0 0 0 0 0 0 0 0 0 0 0 0 0 0 0 0 0 0 0 1 2 3
3 2 1 1 2 2 2 1 1 1 0 0 1 1 2 3 4 4 4 2 1 1 0 0 0 0 0 0 0 0 0 0 0 0 0 0 0 0 0 0 0 1 1
7 5 3 4 5 5 4 2 2 2 1 1 2 3 3 4 6 7 6 4 3 2 1 0 0 0 0 0 0 0 0 0 0 0 0 0 0 0 0 0 0 0 0
13 10 8 9 11 11 9 6 4 3 3 3 5 5 5 6 8 9 8 7 6 5 3 2 0 0 0 0 0 0 0 0 0 0 0 0 0 0 0 0 0 0 0
21 18 15 15 17 17 15 12 8 5 3 4 6 7 7 7 9 10 9 9 9 8 6 5 3 2 1 0 0 0 0 0 0 0 0 0 0 0 0 0 0 0 0
26 26 23 21 21 21 20 18 13 8 5 5 5 5 6 6 7 8 8 9 9 8 7 7 6 5 3 1 1 0 0 0 0 0 0 0 0 0 0 0 0 0 0
30 31 31 28 25 24 24 25 21 14 9 5 4 4 4 4 5 6 6 7 7 7 7 7 7 6 5 3 1 0 0 0 0 0 0 0 0 0 0 0 0 0 0
31 34 36 33 28 26 27 27 24 18 10 5 3 3 3 3 3 4 5 4 4 5 6 6 5 4 3 2 1 0 0 0 0 0 0 1 1 0 0 0 0 0 0
30 35 40 36 29 25 26 26 23 18 11 5 3 3 3 3 2 2 3 2 2 4 4 4 4 2 1 1 0 0 0 0 0 0 1 2 2 1 0 0 0 0 0

GEFSSE_con_prob3kmehi_228.txt.gz
EHI
0 0 1 3 3 1 0 0 0 0 0 0 0 0 0 0 0 0 0 0 0 0 0 0 0 1 1 1 1 1 1 0 1 1 1 0 0 1 0 0 0 1 1
0 1 2 3 3 2 1 0 0 0 0 0 0 0 0 0 0 0 0 0 0 0 0 0 0 0 0 0 0 0 0 0 0 0 0 0 0 1 1 0 0 0 1
0 1 2 3 3 2 1 0 0 0 0 0 0 0 0 0 0 0 0 0 0 0 0 0 0 0 0 0 0 0 0 0 0 0 0 0 0 0 1 1 0 0 0
0 0 1 3 3 2 1 0 0 0 0 0 0 0 0 0 0 0 0 0 0 0 0 0 0 0 0 0 0 0 0 0 0 1 0 0 0 0 0 0 0 0 0
0 0 1 3 3 2 1 0 0 0 0 0 0 0 0 0 0 0 0 0 0 0 0 0 0 0 0 0 0 0 0 0 0 0 0 0 0 0 0 0 0 0 0
0 1 2 3 3 2 1 0 0 0 0 0 0 0 0 0 0 0 0 0 0 0 0 0 0 0 0 0 0 0 1 2 1 0 0 0 0 0 0 0 0 0 0
0 1 2 3 2 1 0 0 0 0 0 0 0 0 0 0 0 0 0 0 0 0 0 0 0 0 0 0 0 0 2 2 1 0 0 0 0 0 0 0 0 0 0
0 1 2 2 1 0 0 0 0 0 0 1 1 1 0 0 0 0 0 0 0 0 0 0 0 0 0 0 0 0 1 2 1 0 0 0 0 0 0 0 0 0 0
0 1 1 1 0 0 0 0 0 0 1 2 2 1 0 0 0 0 0 0 0 0 0 0 0 0 0 0 0 0 1 2 1 0 0 0 0 0 0 0 0 0 0
0 0 0 0 0 0 0 0 0 0 1 1 1 0 0 0 0 0 0 0 0 0 0 0 0 0 0 0 0 0 2 3 1 0 0 0 0 0 0 0 0 0 0
0 0 0 0 0 0 0 0 0 0 0 1 1 1 0 0 0 0 0 0 0 0 0 0 1 1 1 0 0 0 1 1 0 0 0 0 0 0 0 0 0 0 0
1 0 0 0 0 0 0 0 0 0 0 0 1 1 0 0 0 0 0 0 0 0 0 0 1 1 1 0 0 0 0 0 0 0 0 0 0 0 0 0 0 0 0
2 1 0 0 0 0 0 0 0 0 0 0 1 1 0 0 0 0 0 0 0 0 0 0 1 1 0 0 0 0 0 0 0 0 0 0 0 0 0 1 1 1 1
2 1 1 0 0 0 0 0 0 0 0 0 0 0 0 0 0 0 0 0 0 0 0 0 0 0 0 0 0 0 0 0 0 0 0 0 0 0 0 1 2 2 2
3 3 2 1 1 1 1 1 0 0 0 0 0 0 0 0 0 0 0 0 0 0 0 0 0 0 0 0 0 0 0 0 0 0 0 1 1 0 0 1 2 3 3
5 4 3 2 2 2 2 1 0 0 0 0 0 0 0 0 0 0 1 2 2 1 1 1 0 1 1 0 0 0 0 0 0 0 0 1 2 1 1 1 1 1 2
5 4 3 3 4 4 3 1 0 0 0 1 1 1 1 2 2 2 3 5 4 2 2 3 2 2 1 0 0 0 0 0 0 0 0 1 2 2 2 2 1 1 2
4 4 4 4 5 6 4 3 1 1 1 2 2 3 4 5 5 6 6 6 5 4 4 5 5 4 2 1 1 0 0 1 1 0 0 0 1 2 3 3 3 3 3
4 5 7 7 7 6 6 5 4 3 3 3 3 4 5 6 8 9 10 8 6 5 5 5 6 6 5 3 2 0 1 2 2 1 1 1 2 2 3 3 3 3 4
7 9 12 13 11 9 7 6 6 5 4 3 4 5 5 7 9 11 11 10 8 7 7 7 7 8 8 6 3 1 1 2 3 3 2 2 2 2 2 3 3 4 4
11 14 18 19 19 17 12 9 7 6 4 4 5 6 6 7 9 12 12 10 10 10 10 9 9 10 11 10 7 4 3 3 3 3 3 2 1 0 1 1 3 4 4
16 18 21 25 27 25 19 13 10 8 6 5 5 6 6 6 7 9 10 10 9 10 11 11 11 12 12 12 10 7 4 3 3 2 2 1 1 1 0 1 3 4 4
21 22 24 28 32 31 25 19 16 13 9 6 5 6 6 6 5 6 8 8 7 7 9 10 11 11 12 12 11 9 6 5 4 2 1 1 2 2 1 1 2 4 4
21 23 27 34 39 38 32 28 26 21 12 7 6 5 5 6 6 6 7 8 8 8 8 9 9 10 11 11 10 9 8 7 6 4 2 2 1 1 1 0 1 2 2
16 20 29 41 47 47 42 37 33 25 15 9 8 7 7 8 9 8 9 10 11 11 10 10 10 10 10 9 9 8 8 7 6 5 3 2 1 1 1 1 0 0 1
13 17 29 44 53 53 47 41 36 28 18 11 10 10 10 11 11 10 10 11 12 12 11 11 11 10 9 8 8 8 6 4 4 4 2 2 2 2 2 2 1 1 1

GEFSSE_con_prob3kmehi_234.txt.gz
EHI
1 2 1 0 0 0 0 0 0 0 0 0 0 0 0 0 0 0 0 0 0 0 0 0 0 0 0 0 0 0 0 1 3 1 0 0 0 0 0 0 0 1 3
1 1 1 0 0 0 0 0 0 0 0 0 0 0 0 0 0 0 0 0 0 0 0 0 0 0 0 0 0 0 0 1 2 1 0 0 0 0 0 0 0 1 3
2 1 0 0 0 0 0 0 0 0 0 0 0 0 1 1 1 0 0 0 0 0 0 0 0 0 0 0 0 0 0 0 0 0 0 0 0 0 1 0 0 0 1
3 2 1 0 0 0 0 0 0 0 0 0 0 1 1 2 1 0 0 0 0 0 0 0 0 0 0 0 0 0 0 0 0 0 0 0 0 0 0 0 0 0 0
4 3 2 1 0 0 0 0 0 0 0 1 1 1 1 1 0 0 0 0 0 0 0 0 0 0 0 0 0 0 0 0 0 0 0 0 0 0 0 0 0 0 0
4 4 4 3 1 0 0 0 0 0 0 1 1 0 0 0 0 0 0 0 0 0 0 0 0 0 0 0 0 1 1 1 0 0 0 0 0 0 0 0 0 0 0
5 6 6 6 4 1 1 0 0 0 0 0 0 0 0 0 0 0 0 0 0 0 0 0 0 0 0 0 1 2 3 3 1 1 1 1 0 0 0 0 0 0 0
7 7 7 6 5 3 2 1 0 0 0 0 0 0 0 0 0 0 0 0 0 0 0 0 0 0 0 0 1 4 7 6 3 1 1 1 0 0 0 0 0 0 0
7 7 6 6 5 4 4 2 1 0 0 0 0 0 0 0 0 0 0 0 0 0 0 0 0 0 0 1 2 5 9 8 4 1 0 0 0 0 0 0 0 0 0
5 5 5 5 5 5 5 4 2 1 0 0 0 0 0 0 1 1 0 0 0 0 0 0 0 0 0 2 3 6 8 6 3 1 1 2 2 1 0 0 0 0 0
4 3 3 4 5 5 6 5 3 2 1 1 1 2 3 2 2 2 1 1 1 1 1 1 2 2 2 2 5 7 6 2 1 1 2 5 5 3 1 1 1 1 0
3 3 3 3 4 4 4 5 5 6 5 3 4 5 5 4 3 3 4 5 5 4 4 4 6 6 5 4 6 7 5 2 1 1 3 6 9 6 3 2 2 2 1
3 3 4 3 3 4 4 4 5 9 8 6 6 5 4 3 3 5 7 9 10 9 7 6 7 7 6 4 4 4 4 2 1 2 3 7 11 10 5 3 3 3 3
4 4 4 4 5 6 6 5 5 7 7 6 6 4 2 1 3 5 7 9 9 9 9 8 6 3 2 2 1 1 1 1 2 3 4 7 11 10 6 3 3 3 4
5 4 4 5 7 8 7 6 4 4 5 6 7 6 4 4 5 5 7 8 7 7 9 9 6 3 2 2 2 2 1 1 2 4 5 8 10 9 7 6 5 4 4
6 7 7 9 10 9 8 6 5 5 5 7 11 10 7 7 9 9 9 9 8 7 8 9 8 6 6 6 5 4 4 4 4 5 7 7 9 10 10 10 8 5 4
9 10 11 11 12 11 9 7 7 7 6 8 12 14 12 12 14 14 13 12 12 10 9 10 11 10 10 10 9 7 6 7 7 7 9 9 8 8 11 12 10 7 4
16 17 14 12 14 14 11 8 8 8 8 9 12 16 18 18 18 18 17 15 15 12 10 10 11 11 11 11 11 10 9 9 10 9 12 13 11 9 10 11 12 10 8
26 24 18 16 17 17 14 10 9 10 11 12 14 19 22 22 20 20 20 19 16 13 10 9 10 11 12 12 12 12 12 13 13 12 13 16 16 14 12 12 13 13 12
40 35 29 26 26 23 17 12 12 14 16 16 17 22 25 23 20 20 20 19 17 13 11 9 11 14 15 14 12 12 13 16 18 16 14 16 19 19 17 17 16 15 13
56 51 44 40 37 28 19 17 17 18 19 20 22 25 26 23 21 20 17 15 15 14 11 10 12 15 15 13 12 12 12 15 18 20 18 18 20 22 22 23 22 20 17
66 63 57 52 46 35 25 23 24 24 25 25 26 27 24 22 21 20 17 13 13 13 11 10 11 13 12 10 10 11 11 11 14 17 19 19 21 24 23 25 29 29 25
67 67 65 64 57 46 36 32 34 36 35 33 33 32 27 23 22 22 19 15 13 11 10 10 11 11 11 10 9 9 10 9 8 12 14 15 18 20 19 21 29 32 29
65 67 71 73 68 57 49 44 45 47 44 40 39 39 35 30 26 26 26 23 18 14 13 14 15 14 12 9 9 9 10 9 8 8 8 9 12 14 14 15 20 25 26
62 66 73 77 73 65 59 54 52 51 47 42 43 44 42 38 33 32 34 34 29 23 19 19 20 18 13 9 8 9 8 9 9 7 5 5 7 9 11 12 14 18 22
59 64 73 79 76 68 62 58 54 51 47 43 44 46 44 41 37 35 37 40 37 29 24 23 23 21 14 9 8 7 8 9 10 7 4 4 5 6 9 11 13 15 19

GEFSSE_con_prob3kmehi_240.txt.gz
EHI
0 0 0 0 0 1 2 2 1 2 3 4 4 4 4 3 2 2 1 0 0 0 0 0 0 0 0 0 0 0 0 0 0 0 0 0 0 0 0 0 1 2 5
0 0 0 0 0 1 2 2 2 3 3 4 4 3 3 2 1 1 0 0 0 0 0 0 0 0 0 0 0 0 0 0 0 0 0 0 0 0 0 1 1 2 5
0 0 1 0 0 0 1 1 2 3 3 4 3 2 1 1 0 0 0 0 0 0 0 0 0 0 0 0 0 0 0 0 0 0 0 0 0 0 1 2 2 2 3
0 0 0 0 0 0 0 0 1 1 2 2 2 1 0 0 0 0 0 0 0 0 0 0 0 0 0 0 0 0 0 0 0 0 0 0 0 0 1 1 1 1 2
0 0 0 0 0 0 0 0 0 0 1 1 1 0 0 0 0 0 0 0 0 0 0 0 0 0 0 0 0 0 0 0 0 0 0 0 0 0 0 0 1 1 1
0 0 0 1 0 0 0 0 0 0 0 0 0 0 0 1 1 1 0 1 1 1 0 0 0 0 0 0 0 0 0 0 0 0 1 1 1 0 0 0 0 0 0
0 0 1 3 2 0 0 0 0 0 0 0 0 0 0 1 2 2 2 2 2 1 0 0 0 0 0 0 0 0 0 1 0 0 1 2 1 0 0 0 0 0 0
0 0 1 3 2 1 0 0 0 0 0 0 0 0 1 1 2 2 2 3 2 1 0 0 0 1 1 1 0 0 0 0 0 0 1 1 0 0 0 0 0 0 0
1 0 0 1 1 1 0 0 0 0 0 0 0 0 2 3 3 3 3 3 2 1 0 0 1 2 3 2 2 1 0 0 0 0 0 0 0 0 0 0 0 0 0
3 2 0 0 0 0 0 0 0 0 0 1 1 2 3 3 3 4 4 4 3 3 2 1 2 3 4 4 4 3 1 0 0 0 0 0 1 0 0 0 0 0 0
5 3 1 0 0 0 0 0 0 0 0 1 2 3 3 2 2 4 6 6 6 6 5 5 4 3 4 4 4 3 1 0 0 0 0 0 1 2 1 0 0 0 0
5 3 1 1 1 1 0 0 0 0 0 1 1 3 3 2 2 4 5 6 7 6 5 5 3 2 1 1 2 2 1 0 0 0 0 1 4 6 3 0 0 0 0
5 4 2 2 2 2 1 1 1 1 0 0 0 1 2 2 2 3 3 3 4 4 3 2 1 0 0 0 0 0 0 0 0 0 0 3 8 10 6 2 0 0 0
8 5 4 4 3 1 1 1 2 2 1 0 0 0 1 2 2 2 2 2 3 3 1 0 0 0 0 0 0 0 0 0 0 0 1 5 10 12 8 3 1 0 0
9 7 6 5 3 0 0 1 1 2 2 1 1 1 1 1 1 1 1 2 2 2 1 0 0 0 0 0 0 0 0 0 0 0 1 5 11 12 9 5 2 0 0
10 10 9 7 3 1 1 0 1 1 1 1 2 2 3 2 1 1 2 2 1 1 1 0 0 0 0 0 0 0 0 0 0 0 0 3 8 10 10 7 4 1 1
12 12 10 7 5 3 2 1 1 1 0 1 1 3 5 5 3 3 3 2 1 1 1 0 0 0 0 0 0 0 0 0 0 0 0 1 3 7 9 8 6 5 4
12 11 8 7 6 5 3 2 1 1 1 0 1 3 6 8 7 5 4 3 2 2 2 1 0 0 0 0 0 0 0 0 0 0 0 0 1 3 5 6 8 10 10
11 9 7 6 7 8 7 5 3 2 2 1 0 1 4 8 9 7 5 4 4 4 3 1 0 0 0 0 0 0 0 0 0 0 0 0 0 1 1 3 7 10 12
15 13 11 9 7 9 11 9 6 4 3 2 2 3 5 8 10 9 7 6 6 5 4 1 0 0 0 0 0 0 0 0 0 0 0 0 0 0 0 1 2 6 9
25 24 23 18 12 12 13 12 8 4 3 4 5 7 8 9 10 10 9 8 7 6 4 2 1 1 0 0 0 0 0 0 0 0 0 0 0 0 0 0 1 2 4
40 38 35 29 21 16 15 12 8 4 4 5 7 9 9 9 9 9 10 10 9 6 4 3 2 2 1 1 0 0 0 0 0 0 0 0 0 0 1 1 1 2 2
51 47 43 39 31 21 17 15 11 8 6 7 8 9 9 9 9 9 10 10 8 6 4 4 3 3 3 1 0 0 0 0 0 0 0 0 0 0 1 1 2 2 2
58 54 50 46 39 29 24 22 18 13 9 8 9 10 11 11 10 10 10 9 9 8 6 5 4 4 2 1 0 0 0 0 0 0 0 0 0 0 0 1 1 1 1
61 60 56 52 46 39 34 31 26 19 13 11 11 12 13 12 11 10 10 10 11 9 6 4 3 2 1 0 0 0 0 0 0 0 0 0 0 0 0 1 1 0 0
62 63 61 55 49 44 40 36 30 24 18 14 14 14 13 12 11 11 10 11 11 9 6 3 2 1 1 0 0 0 0 0 0 0 0 0 0 0 0 0 0 0 0

GEFSSE_con_prob3kmehi_246.txt.gz
EHI
3 3 3 3 3 3 4 4 4 3 4 5 6 5 4 4 3 3 4 6 6 6 6 6 5 4 4 5 5 4 4 4 4 3 3 3 4 5 5 4 3 3 3
3 3 3 3 3 3 4 5 5 4 4 5 6 7 5 4 3 3 4 5 6 6 6 5 4 3 4 5 4 3 3 4 3 3 3 3 3 4 4 3 3 2 2
3 3 3 3 3 3 4 5 6 5 5 6 6 7 6 4 3 3 3 4 4 4 4 4 3 3 3 4 3 3 3 3 3 3 1 1 3 3 3 3 3 2 2
4 3 3 3 3 3 3 4 5 6 5 5 5 6 6 5 4 3 3 3 3 4 5 4 3 2 3 3 3 3 3 3 3 2 1 1 2 3 3 3 3 3 3
5 4 4 4 4 3 3 3 4 6 5 4 4 5 6 6 4 3 2 2 3 4 5 4 2 1 1 2 3 3 4 4 2 1 0 1 2 3 3 3 3 3 3
6 5 5 6 5 4 3 3 4 5 5 4 3 4 5 4 4 3 2 1 1 3 3 2 0 0 0 1 1 3 4 4 2 0 0 0 2 3 3 3 3 3 3
5 5 5 6 6 5 4 3 3 4 4 3 3 3 4 3 3 3 2 1 0 1 1 0 0 0 0 0 0 1 3 3 1 0 0 1 2 3 3 3 3 3 3
4 4 5 6 6 6 5 4 3 3 3 3 3 3 3 3 3 3 3 2 1 0 0 1 1 0 0 0 0 1 2 1 0 0 0 1 2 3 3 2 2 2 2
3 3 4 6 6 6 6 4 3 3 3 3 3 3 3 3 3 3 4 4 3 1 1 1 1 0 0 0 1 2 2 1 0 0 0 1 2 3 2 1 0 1 1
4 4 4 5 6 6 5 5 4 4 3 3 3 3 3 2 2 3 4 5 4 2 1 1 1 0 0 1 1 1 1 1 0 0 0 1 2 2 1 0 0 0 0
6 5 4 4 4 4 4 4 4 4 3 2 2 2 1 1 1 1 3 5 4 2 0 0 0 0 0 1 1 1 0 0 0 0 0 1 1 1 0 0 0 0 0
6 5 4 3 2 2 3 3 3 2 1 1 1 1 0 0 0 0 1 2 2 1 0 0 1 0 0 0 0 0 0 0 0 0 1 1 1 0 0 1 1 0 0
5 5 4 2 1 1 1 2 1 1 0 0 0 0 0 0 0 0 0 1 1 1 0 0 0 0 0 0 0 0 0 0 0 0 1 2 2 1 1 2 2 1 1
4 4 3 2 1 0 0 0 0 0 0 0 0 0 0 0 0 0 0 0 0 0 0 0 0 0 0 0 0 0 0 0 0 0 1 2 3 3 2 3 4 4 3
3 3 3 2 0 0 0 0 0 0 0 0 0 0 0 0 0 0 0 0 0 0 0 0 0 0 0 0 0 0 0 0 0 0 1 3 4 4 3 4 6 6 5
3 3 3 2 1 0 0 0 0 0 0 0 0 0 0 0 0 0 0 0 1 0 0 0 0 0 0 0 0 0 0 0 0 0 1 2 4 4 5 6 8 7 5
3 3 3 3 2 1 0 0 0 0 0 0 0 0 0 0 0 0 0 0 0 0 0 0 0 0 0 0 0 0 0 0 0 0 0 1 3 5 5 7 9 7 6
4 4 4 5 4 2 1 0 0 0 0 0 0 0 0 0 0 0 0 0 0 0 0 0 0 0 0 0 0 0 0 0 0 0 0 1 2 4 4 6 8 7 6
5 5 6 5 4 3 1 1 1 1 1 0 0 0 0 0 1 1 1 1 1 1 1 1 1 0 0 0 0 0 0 0 0 0 0 0 1 2 3 4 6 6 6
4 4 5 6 4 3 3 3 2 2 2 1 0 0 0 1 3 3 3 3 2 2 2 1 1 0 0 0 0 0 0 0 0 0 0 0 0 1 2 3 4 5 6
5 4 4 5 4 3 3 3 3 3 2 1 1 1 2 4 5 5 5 4 3 3 3 2 0 0 0 0 0 0 0 0 0 0 0 0 0 0 1 1 2 3 3
7 5 4 4 3 2 2 2 2 2 1 1 1 2 5 6 6 6 4 3 3 3 2 1 0 0 0 0 0 0 0 0 0 0 0 0 0 0 0 0 1 1 1
8 6 4 3 2 1 2 3 4 4 2 1 1 3 4 4 4 4 4 4 4 3 2 1 2 2 1 0 0 0 0 0 0 0 0 0 0 0 0 0 0 0 0
6 4 2 2 2 2 4 6 6 6 4 2 1 1 3 2 2 3 4 5 6 5 3 3 4 4 2 2 2 1 0 0 0 0 0 0 0 0 0 0 0 0 0
3 2 1 2 2 3 5 8 8 7 6 4 2 2 3 4 4 4 5 6 6 6 5 4 4 4 3 3 3 2 1 0 0 0 0 0 0 0 0 0 0 0 0
4 3 2 2 3 4 6 9 9 9 8 6 5 4 5 6 6 6 7 6 5 5 5 5 4 3 3 4 4 3 1 0 0 0 0 0 0 0 0 0 0 0 0